星链-32772 (STARLINK-32772)

导读

STARLINK-32772是美国于2025年2月18日发射的星链卫星,隶属于SpaceX公司的星链星座项目。星链项目旨在构建全球卫星互联网星座,为全球偏远地区、海洋等网络覆盖薄弱区域提供高速宽带服务,该卫星的发射进一步扩充了星链星座的在轨卫星数量,推进了星座全球组网进程。

基本信息
目录编号:
63033
目录名称:
STARLINK-32772
国际标识:
2025-034E
轨道中心:
EARTH
卫星名称:
星链-32772
卫星全名:
星链-32772 (STARLINK-32772)
卫星状态:
在轨 (已飞行564 天)
发射日期:
2025-02-18 UTC
国别 :
美国 (US)
星等 :
--
轨道信息
数据来源 国际轨道数据
星历时间: 2026-09-05T11:14:47+0800
5小时前
查看轨道信息
半长轴: 6848.836km
偏心率: 0.0000891
轨道倾角: 53.157°
近地点辐角 86.218°
升交点赤经 143.710°
平近点角 273.892°
近地点: 470.088km
远地点: 471.31km
周期: 94.012分钟
每日圈数: 15.317138
详细信息
固有亮度:
5
最大亮度:
2.5
卫星平台:
Starlink V1.0
覆盖范围:
全球
运营商:
太空探索技术公司
运营商所在国:
美国
制造商(研发单位):
太空探索技术公司
制造商所在国:
美国
使用方式:
暂无
卫星简介
Starlink 计划是 SpaceX 推出的全球卫星互联网项目,通过发射低轨道卫星,为全球尤其是偏远地区提供高速、低延迟的互联网服务。自 2019 年起,Starlink 已部署数千颗卫星,旨在缩小全球数字鸿沟,推动互联网普及。该项目还为军事、航空等行业提供通信支持,带来广泛经济效益。
2D轨道图
3D轨道图
轨道高度分析图
轨道倾角分析图
轨道综合分析图
查看轨道综合分析图
交会数据列表
事件ID 空间交会对象 最接近时刻(TCA) 交会距离 交会风险概率(CRP) 交会风险指数(CRI) 操作
CDM_260905-062406-189506-303323
OBJECT B (61895)
2026-09-05T
06:24:09+0000
0.806 km
远距离
5.564262E-5 中风险 0.7
CDM_260907-015005-855506-303321
HONGHU 2 (58555)
2026-09-07T
01:50:54+0000
2.313 km
极远距离
1.818288E-6 低风险 0.4
CDM_260905-135706-303306-972121
2026-09-05T
13:57:31+0000
2.523 km
极远距离
1.68028E-6 低风险 0.4
CDM_260906-140106-303306-395121
2026-09-06T
14:01:40+0000
2.252 km
极远距离
1.147631E-6 低风险 0.36
CDM_260907-095106-303306-970021
2026-09-07T
09:51:37+0000
2.730 km
极远距离
9.956254E-7 极低风险 0.35
CDM_260907-003406-303306-866221
2026-09-07T
00:34:11+0000
2.663 km
极远距离
9.393132E-7 极低风险 0.34
CDM_260905-043706-303306-943221
2026-09-05T
04:37:35+0000
2.916 km
极远距离
9.046204E-7 极低风险 0.34